Theta_e
345 348 349 351 353 353 354 354 354 354 354 354 354 354 353 352 352 352 351 351 351 350 350 350 349 349 348 348 348 349 348 350 350 350 351 350 350 348 347 347 347 347 347 347 344 344 345 345 345 345 344 344 343 342 340 341 345 346 346 347 347 347 347 347 348 348 348 349 348 348 349 349 350 350 352 352 352 350 349 349 349 347 347 348 350
345 350 350 351 353 354 354 354 354 354 353 353 353 353 353 353 352 351 351 351 350 350 350 350 349 349 350 350 349 349 349 349 349 350 350 350 350 349 348 348 347 347 347 346 346 346 343 341 341 341 341 342 342 342 341 340 340 342 344 344 345 347 347 347 347 346 347 346 348 347 347 348 349 349 349 350 350 350 348 348 348 346 346 349 350
347 349 351 351 353 354 354 353 354 354 353 353 353 353 353 352 351 351 351 350 350 349 349 350 351 350 350 349 349 348 348 348 349 349 350 349 349 348 347 347 346 346 346 347 346 342 341 341 341 340 339 338 339 340 341 340 339 339 342 343 343 344 345 347 347 346 346 346 346 347 346 347 348 348 349 349 348 349 347 348 348 347 346 350 349
346 348 351 349 350 352 354 353 352 353 353 353 353 353 352 352 351 351 350 350 350 349 349 350 350 350 349 348 348 348 348 349 348 348 349 349 349 348 347 347 347 346 346 346 345 342 342 342 341 340 338 337 337 338 339 339 340 340 339 342 342 343 344 345 347 347 348 346 347 345 345 342 343 347 348 348 347 347 346 346 347 347 348 348 348
344 348 350 350 351 351 353 353 353 352 353 353 353 353 352 352 351 351 350 350 350 349 349 349 349 349 348 348 348 348 348 348 348 348 349 349 349 348 348 347 346 346 346 346 344 343 343 343 341 339 337 335 335 336 338 339 341 340 340 341 342 342 344 346 346 346 345 344 344 344 343 342 341 345 346 348 347 345 344 345 346 347 346 346 347
344 348 349 350 351 351 350 352 353 353 352 352 352 352 352 351 351 350 350 349 349 349 348 348 348 348 348 348 348 348 348 347 347 347 347 347 348 348 347 346 347 346 346 345 344 344 343 342 341 339 336 334 333 335 337 339 340 340 340 340 341 342 343 342 343 343 341 341 341 343 342 342 342 343 348 347 347 345 344 344 344 345 344 345 344
343 347 347 348 349 350 348 352 353 353 353 353 352 352 352 351 351 350 349 349 349 349 348 348 348 348 348 348 347 348 347 347 347 346 346 346 347 348 347 346 346 346 346 345 345 344 343 341 339 338 337 333 332 334 337 338 339 339 339 340 339 339 340 341 339 340 340 339 337 340 341 342 341 342 347 347 346 346 345 344 344 343 343 343 343
344 345 345 347 351 348 348 352 352 352 353 352 352 352 352 351 350 350 349 349 348 348 348 348 348 347 347 347 347 347 347 347 347 346 347 347 346 347 346 346 346 346 344 345 344 343 342 339 339 337 336 333 332 334 336 337 337 338 338 338 338 338 339 338 339 339 339 338 335 334 338 341 341 341 346 346 346 346 345 344 343 343 342 342 340
342 343 345 346 350 347 349 349 351 352 352 351 351 350 350 350 350 349 349 349 348 348 347 347 347 347 347 347 347 347 347 347 347 346 345 346 346 347 346 345 344 344 345 345 345 344 341 339 338 337 335 333 331 333 335 335 336 336 336 337 338 339 339 340 339 337 336 335 332 331 336 340 340 341 344 345 345 346 345 343 343 343 342 341 340
341 342 346 351 350 344 349 350 352 350 351 352 352 351 351 350 349 349 348 348 348 347 347 347 346 347 347 347 347 347 346 346 346 345 345 346 346 346 345 344 344 343 344 344 344 343 341 339 338 335 334 332 330 331 334 335 336 336 336 337 338 339 339 339 336 334 336 334 332 328 338 343 340 341 343 345 345 344 342 342 341 341 340 340 340
341 343 351 351 349 345 350 352 351 350 349 350 351 351 351 350 349 349 349 348 348 348 347 346 345 346 347 346 346 347 347 346 346 346 346 346 346 345 344 344 343 343 343 343 344 343 341 339 336 334 333 332 329 330 333 334 335 335 335 337 338 339 338 337 333 334 332 332 334 334 342 343 339 339 343 343 344 342 339 340 341 341 341 340 338
340 348 349 346 345 344 350 350 350 349 349 349 349 350 349 348 348 349 349 349 348 348 348 346 345 346 345 346 346 346 347 346 345 345 345 345 345 344 344 344 343 342 342 342 343 342 340 338 335 334 333 331 328 328 332 333 334 335 335 337 337 336 335 335 332 330 330 331 332 335 335 337 338 338 342 341 341 341 339 338 338 338 338 339 334
341 344 347 348 345 340 345 350 349 350 350 349 349 349 349 348 347 347 349 348 348 348 348 347 346 345 345 345 345 345 347 346 345 344 344 343 344 343 343 343 342 342 341 342 340 339 337 336 335 333 331 330 328 327 329 331 332 333 334 335 335 334 333 331 330 329 329 330 331 333 333 332 333 339 340 340 339 338 339 338 338 337 337 336 332
339 340 344 348 344 339 337 341 346 349 349 349 349 347 348 348 348 348 347 348 348 348 348 347 347 345 345 346 346 346 346 346 345 344 344 343 342 341 343 342 341 341 341 340 338 336 336 336 334 333 331 330 328 326 328 330 331 331 331 332 332 332 329 328 332 327 328 329 328 332 332 334 334 338 338 337 337 336 336 336 336 335 334 334 332
337 338 338 345 344 342 335 335 341 344 348 348 349 347 348 345 347 344 347 346 348 348 347 347 347 346 346 346 346 346 346 344 345 344 344 343 342 342 341 341 341 341 341 339 337 336 335 335 334 332 331 329 328 326 327 329 330 330 330 329 330 329 328 324 328 327 329 329 330 332 331 332 339 336 336 336 336 335 334 335 332 331 332 332 332
335 335 336 338 342 343 343 337 334 337 341 345 346 347 347 347 347 347 347 347 347 347 348 347 347 347 346 345 345 345 345 345 344 344 343 343 342 341 341 341 339 341 341 338 337 336 335 334 333 332 330 329 327 325 326 327 328 328 328 328 328 329 325 322 325 328 326 326 330 330 330 331 338 335 334 335 335 335 333 333 332 331 331 331 331
336 335 335 336 337 339 343 343 337 332 332 336 341 342 345 347 346 346 346 346 348 348 347 347 346 347 347 347 346 346 344 344 345 343 343 342 342 341 340 341 340 341 340 338 337 336 335 333 332 331 330 328 326 324 324 325 326 326 325 325 328 325 322 320 325 325 324 327 327 328 329 331 335 336 335 334 334 333 333 332 330 330 330 330 331
332 334 333 333 335 336 339 342 341 341 342 334 333 339 342 345 346 346 345 344 347 348 348 348 347 347 346 345 344 344 345 345 344 343 343 342 341 341 341 340 339 339 338 337 336 335 333 333 332 331 329 327 324 322 322 323 323 323 323 324 325 322 321 321 322 323 325 326 324 326 327 332 334 335 334 334 334 333 332 332 331 329 330 330 330
322 329 329 330 331 334 335 337 339 343 343 343 343 337 334 339 342 340 341 344 344 345 346 344 343 344 343 341 339 338 337 338 339 340 340 338 336 335 340 341 339 338 337 337 336 335 333 332 331 330 329 325 322 320 320 320 321 320 322 322 321 317 318 319 319 320 322 321 321 322 326 333 333 334 333 333 333 332 331 331 331 330 330 330 329
317 318 319 323 328 331 331 332 336 338 340 341 342 344 332 332 336 337 337 340 341 341 340 338 335 334 334 333 329 327 326 330 327 333 333 337 335 334 335 338 339 338 337 337 336 334 334 333 331 330 328 324 320 319 318 317 318 319 319 319 317 316 314 315 316 317 318 319 317 319 326 331 333 333 333 332 332 330 331 331 331 330 328 330 329
318 316 316 317 319 324 329 331 331 336 338 339 341 345 338 329 329 329 332 335 336 337 337 329 324 322 325 322 322 337 337 335 332 335 326 333 325 327 332 337 339 338 337 336 336 335 334 333 331 329 327 322 320 319 319 317 317 318 317 316 314 310 312 313 315 316 314 314 311 316 325 329 331 332 332 331 331 331 329 330 329 329 329 329 328
313 314 316 316 317 318 320 327 330 330 334 339 341 344 339 336 341 337 338 334 331 330 333 338 335 337 324 326 336 339 338 339 338 333 334 331 326 324 330 336 339 336 337 337 336 335 334 333 331 329 328 323 318 309 309 315 316 316 313 313 308 307 311 311 311 314 313 310 309 316 322 327 329 332 332 335 334 330 328 329 328 328 328 327 328
311 312 314 315 317 317 319 319 322 329 331 335 339 338 341 342 342 342 341 334 336 336 339 339 341 339 339 339 335 336 336 336 339 336 337 328 329 323 329 333 335 333 335 337 336 335 334 333 331 329 328 327 315 315 310 307 305 309 310 306 305 306 308 309 308 310 313 308 306 316 318 321 326 329 332 334 334 334 334 327 327 327 327 327 325
310 312 313 317 317 316 317 319 319 324 329 334 336 335 336 340 339 341 341 341 341 339 340 339 337 340 340 338 337 336 337 334 327 327 332 334 327 322 324 328 330 329 330 332 333 334 334 334 331 330 326 321 319 317 314 311 309 305 306 303 302 302 305 305 305 306 310 309 307 316 316 317 319 323 327 330 331 332 335 333 326 328 326 327 327
310 312 313 315 316 316 316 317 319 320 327 332 333 335 337 336 337 338 339 338 338 338 339 339 340 339 336 337 338 337 337 337 336 335 335 336 332 330 328 328 328 329 326 329 328 330 328 327 326 321 321 322 319 318 317 315 314 310 308 305 303 302 303 303 305 304 305 304 307 314 315 315 316 317 320 323 326 328 331 334 333 330 327 327 328
311 311 312 314 315 316 316 318 318 319 325 330 332 333 334 335 336 336 337 337 338 337 337 337 335 337 339 337 337 336 335 335 335 335 334 334 335 334 332 332 330 330 329 329 329 329 329 331 329 326 323 321 319 316 314 313 313 310 308 307 305 303 302 302 303 303 303 305 306 314 314 314 315 315 316 318 320 322 327 331 334 334 334 330 328
309 311 313 314 316 316 316 318 317 318 325 330 331 332 334 335 336 333 334 334 335 333 333 332 333 334 334 334 334 335 334 333 333 334 333 333 333 332 332 331 329 329 328 327 328 328 330 329 327 325 323 320 317 315 314 313 312 310 309 309 307 305 302 302 301 302 303 304 308 313 314 314 314 315 315 315 317 318 321 324 328 332 334 334 332
310 312 313 314 315 314 318 317 316 318 326 330 331 332 334 331 329 328 329 328 328 328 328 327 328 328 328 329 329 333 334 333 332 333 332 332 333 332 331 330 330 329 328 330 329 329 328 326 326 326 325 321 319 316 314 313 312 312 311 310 309 306 305 305 303 304 303 303 304 310 313 314 313 315 314 315 315 316 317 318 322 327 330 333 334
310 310 311 312 313 316 320 323 319 320 326 329 329 330 329 327 326 326 325 324 325 326 325 324 324 325 326 327 327 331 331 331 330 329 329 328 328 328 328 327 327 328 327 325 326 326 326 325 323 321 322 323 320 317 316 316 314 313 312 311 310 309 307 307 307 307 305 303 304 305 314 313 313 313 313 314 315 315 315 316 318 321 324 327 330
309 309 308 310 313 320 321 322 324 325 327 326 325 324 323 322 323 322 322 322 322 323 323 320 321 323 323 324 324 326 328 328 327 325 324 324 324 323 324 323 323 324 325 323 323 323 320 319 319 318 319 320 319 318 317 315 314 313 312 312 311 311 308 309 308 309 307 307 304 303 313 313 313 312 312 314 315 315 316 317 317 318 319 322 326
307 306 307 310 316 318 319 318 319 319 321 320 320 321 319 318 317 317 318 319 320 319 318 317 318 320 321 321 322 323 324 324 324 323 322 321 320 321 321 321 321 321 322 321 320 320 318 317 318 318 318 319 318 317 316 316 314 313 312 312 312 311 311 310 309 309 309 308 307 306 306 312 314 313 313 313 314 314 315 317 318 319 320 321 323
305 305 308 311 316 316 315 314 315 315 315 316 317 317 316 315 315 314 313 313 314 314 314 314 314 316 318 320 321 321 321 322 323 322 321 320 319 319 319 318 318 319 320 320 319 319 318 317 317 317 316 318 318 317 317 316 315 313 312 312 312 311 311 311 312 310 309 308 307 306 305 306 311 315 314 314 314 313 315 315 315 317 319 321 322
305 306 309 311 313 314 312 311 311 310 310 311 312 312 313 312 310 309 309 310 309 309 308 309 310 311 311 312 314 316 320 319 318 318 318 318 318 318 318 318 319 319 319 319 319 319 318 316 315 315 315 316 315 314 316 316 314 314 315 312 312 312 311 312 312 312 311 309 307 306 307 306 304 311 311 313 314 314 314 313 313 314 315 315 316
304 306 308 309 311 311 311 310 309 308 308 308 308 307 308 308 308 307 307 307 306 306 305 306 306 306 306 308 310 311 313 317 318 317 317 316 315 315 314 314 314 316 317 317 317 316 315 314 315 315 314 314 313 312 312 312 312 313 314 313 311 311 310 311 310 310 310 308 307 306 305 304 303 303 304 307 314 314 313 312 312 313 313 314 315
304 304 305 308 308 308 308 307 307 307 307 306 305 305 305 305 305 305 305 305 304 304 304 303 303 304 304 305 307 308 308 310 312 312 311 310 309 309 308 309 310 310 310 311 314 312 311 310 310 314 311 309 308 308 308 309 309 309 309 310 312 311 310 310 310 309 308 307 306 304 304 302 302 302 302 301 306 307 312 312 312 313 313 313 314
303 303 305 308 306 306 306 305 305 304 304 304 303 303 302 302 302 303 302 302 302 302 302 301 302 302 302 303 304 305 306 307 308 308 307 307 306 306 306 306 307 307 308 308 309 310 309 307 307 308 308 305 305 304 305 305 305 306 306 307 308 309 311 310 310 307 306 305 303 303 303 302 301 300 302 300 300 304 308 310 312 312 312 313 314
303 304 304 306 306 305 304 303 303 303 302 302 302 301 301 300 300 300 300 299 299 298 299 299 299 299 300 300 301 302 304 305 306 306 305 304 304 304 304 305 305 305 306 306 307 308 309 307 304 304 303 302 301 300 301 301 303 304 304 305 306 308 310 309 305 304 304 302 301 302 302 301 301 303 300 300 300 300 303 309 311 310 311 312 312
302 305 305 305 304 304 303 303 303 302 302 301 301 300 300 300 299 298 298 298 297 298 297 298 297 297 298 298 299 299 301 303 304 304 304 303 303 302 302 303 303 303 302 302 302 304 305 305 304 302 300 299 298 298 298 298 300 303 303 303 304 306 306 304 303 301 301 301 302 301 301 300 300 300 300 300 300 300 301 303 306 306 305 309 309
303 305 305 306 305 305 304 304 303 302 302 302 301 300 300 299 299 298 297 297 296 297 296 296 296 296 296 297 297 297 298 300 301 301 301 301 300 299 299 299 300 299 299 298 298 298 299 302 300 300 299 298 296 296 295 296 298 301 303 304 304 305 303 302 301 301 300 301 301 302 302 300 300 300 300 300 300 301 300 300 299 299 300 306 309
303 304 304 305 304 304 304 304 303 303 303 302 301 300 299 298 297 296 295 295 295 294 294 294 294 294 295 295 295 295 295 296 296 297 297 297 296 296 295 295 295 295 294 294 294 294 296 297 299 298 296 294 294 293 293 295 297 297 297 300 303 302 302 298 296 297 300 300 300 300 300 300 300 298 297 298 298 298 298 299 299 299 299 302 307
302 303 302 302 303 303 302 301 304 304 302 300 299 298 296 296 295 294 293 293 293 293 292 292 292 293 293 293 293 293 293 294 294 294 293 294 293 293 292 292 292 292 292 291 292 292 293 294 296 297 294 292 291 291 292 294 293 293 295 298 302 301 299 294 293 297 299 298 299 299 298 299 297 295 294 294 296 296 297 298 298 297 297 298 299
300 301 300 301 302 302 300 301 301 300 299 298 297 296 296 294 294 292 291 291 291 290 290 290 291 292 292 291 292 292 292 292 293 293 292 292 291 291 291 291 290 290 291 291 291 292 291 292 292 292 293 292 290 290 291 291 289 288 290 294 298 299 297 293 292 295 293 297 295 295 297 298 295 293 292 292 294 295 295 296 296 295 295 295 296
299 300 301 301 300 300 299 298 298 297 296 296 295 294 294 293 292 291 290 289 290 290 290 290 290 290 290 290 291 291 291 291 291 292 292 291 291 290 290 290 290 290 289 289 290 290 290 290 290 290 289 289 291 291 289 290 286 288 290 290 290 293 297 290 292 293 292 295 292 291 293 296 292 291 290 290 292 293 293 294 294 292 292 293 294
298 299 299 299 299 298 297 296 294 294 293 293 294 293 293 293 292 291 290 290 288 290 289 289 289 289 289 289 290 290 290 290 290 290 290 290 290 289 289 289 289 289 288 288 288 288 289 289 289 289 289 286 287 287 289 288 287 287 284 287 289 287 283 284 287 290 289 291 290 290 291 293 290 290 289 289 292 290 290 293 291 289 290 291 293
297 297 298 297 298 296 295 294 294 293 293 293 293 292 291 291 290 290 290 289 289 287 287 287 287 288 288 288 288 289 289 289 289 289 289 289 289 289 288 287 288 288 288 287 287 287 288 288 288 287 287 286 286 285 286 288 287 288 286 283 282 282 282 283 286 286 288 288 287 289 291 290 289 289 289 289 291 289 289 291 289 289 289 290 291
295 296 297 297 296 295 294 293 293 292 292 292 292 292 291 290 289 288 287 286 285 285 284 284 285 286 286 287 288 288 288 288 288 288 289 288 288 288 287 286 286 286 287 287 287 287 287 287 287 286 286 286 286 285 284 286 287 287 287 286 285 282 280 282 283 280 285 286 285 287 289 288 288 288 288 290 290 289 289 290 289 289 289 289 291
293 295 295 295 295 294 294 293 292 292 293 292 292 292 291 290 290 289 287 286 285 286 286 286 286 286 286 286 286 287 288 287 287 287 287 287 287 287 286 286 286 286 287 286 286 286 286 287 287 286 286 287 285 283 284 284 284 285 286 286 286 285 284 283 280 281 277 281 283 284 285 285 285 286 287 289 288 288 289 290 289 289 288 289 291
293 293 293 293 293 292 292 292 292 292 292 292 293 293 290 290 289 288 287 286 286 286 286 286 286 286 286 285 286 286 287 287 287 287 287 287 287 286 286 286 286 286 286 285 285 285 286 286 286 286 286 286 285 283 282 283 282 283 285 284 284 284 283 283 283 280 279 277 279 282 283 283 284 284 286 285 286 286 287 287 287 288 288 289 290
292 292 291 291 292 291 291 291 291 291 291 292 292 292 291 290 289 288 287 287 287 287 287 287 286 286 285 285 285 285 286 287 287 287 286 287 287 286 286 285 285 285 286 286 285 285 285 285 285 285 284 285 285 284 283 282 283 283 282 282 282 282 281 282 282 281 278 276 276 278 279 281 281 282 283 284 285 285 285 286 286 287 288 288 288
291 291 290 291 291 290 290 290 290 290 291 291 291 291 290 290 288 287 287 286 287 287 286 286 285 285 285 285 284 285 284 285 286 286 286 286 286 285 285 285 284 285 285 284 284 284 284 284 284 284 284 283 284 284 284 283 283 283 282 282 281 280 279 279 279 279 278 279 277 277 278 278 278 280 282 282 283 284 285 285 285 286 287 287 287
289 289 289 289 289 290 289 289 289 290 291 291 290 290 290 289 288 288 287 287 287 286 286 285 285 285 284 284 284 284 284 284 284 285 285 285 285 285 284 284 284 284 284 283 283 283 283 283 284 283 283 283 283 282 283 283 283 282 281 281 280 281 280 279 277 279 278 276 276 277 277 278 278 278 280 282 283 283 284 284 285 286 287 287 287
Wind_Speed
4 12 9 12 12 12 13 13 14 13 13 13 13 12 12 12 12 11 11 12 12 11 11 11 11 12 12 12 12 12 12 13 13 11 10 11 12 12 13 13 14 14 15 14 14 14 14 15 15 15 14 15 14 15 14 14 14 14 13 13 13 13 12 12 12 12 11 11 13 14 14 14 15 15 17 17 18 17 15 15 14 10 8 12 16
7 9 9 9 12 11 12 13 13 13 13 12 13 12 12 12 11 11 11 11 11 11 10 10 11 11 12 11 11 11 11 12 12 12 10 11 12 12 13 13 14 14 14 14 14 15 15 15 16 16 15 15 14 14 13 13 13 12 12 12 12 11 11 10 10 10 10 10 9 12 13 14 15 15 16 16 17 17 16 15 15 8 6 14 17
7 7 7 9 11 10 10 12 12 12 12 12 12 12 11 11 11 10 11 11 10 10 10 11 11 11 11 11 11 11 11 11 11 11 10 10 11 11 12 12 13 14 14 14 15 15 15 16 16 16 15 15 14 14 13 13 12 12 11 11 11 10 10 9 9 7 7 7 6 8 9 12 13 14 15 16 16 17 16 15 15 14 11 18 16
8 5 7 7 9 8 9 11 11 11 11 11 11 11 11 11 10 10 10 10 10 9 10 11 10 11 10 11 10 11 11 11 11 11 10 10 11 12 13 13 12 13 12 14 15 15 15 16 16 16 15 15 14 13 13 12 12 12 11 10 10 10 9 9 9 8 7 6 7 5 3 5 6 13 14 15 16 16 15 17 17 17 18 18 19
6 7 7 6 5 5 7 8 11 10 11 12 11 12 11 11 10 10 10 10 10 10 9 10 10 10 10 10 10 9 10 10 11 11 11 11 11 12 12 11 12 12 13 13 14 15 15 15 16 16 16 15 14 13 13 12 12 12 11 11 10 10 9 9 9 9 10 9 7 5 3 4 5 12 12 15 15 15 15 16 17 18 17 19 19
4 7 7 7 5 5 6 6 10 11 11 12 12 11 11 11 10 10 9 9 10 10 9 10 9 9 9 9 9 9 9 10 10 10 10 11 10 10 11 10 11 11 12 12 14 14 15 15 15 15 16 15 14 13 12 12 12 12 12 11 11 10 10 9 9 10 10 11 7 1 3 6 5 5 13 13 13 14 15 16 17 17 17 17 17
5 7 6 6 5 6 7 7 9 10 12 11 11 11 11 11 10 10 9 9 9 9 9 9 9 8 9 8 8 8 9 9 9 9 9 9 10 11 10 10 10 10 12 12 13 14 14 15 15 15 15 15 13 13 12 12 12 12 12 11 11 10 9 9 9 10 10 8 2 4 5 6 5 3 12 12 12 14 15 16 16 15 16 16 17
4 7 6 5 4 7 8 7 7 9 11 11 11 11 11 11 10 9 9 9 9 8 8 8 9 7 8 8 8 8 8 8 9 9 9 9 9 10 10 10 10 11 11 13 13 15 15 15 15 15 16 15 13 13 12 13 13 12 12 11 11 10 9 9 9 11 10 5 6 6 5 6 5 4 11 13 14 14 16 16 15 15 15 16 14
2 6 8 7 7 11 9 8 7 8 10 10 11 10 11 11 10 9 9 9 8 9 7 8 8 7 8 7 8 8 7 8 8 8 8 8 9 9 10 10 9 11 12 13 14 15 15 15 15 16 16 15 14 13 13 12 13 12 12 11 10 10 10 10 11 12 8 1 6 5 5 5 6 5 10 13 15 17 16 13 11 14 14 14 13
3 4 7 8 8 11 10 10 9 7 7 9 9 10 10 10 11 11 9 8 9 8 8 7 8 8 7 5 7 7 7 7 7 8 7 8 8 10 10 10 12 12 12 13 14 16 15 16 15 16 16 15 14 13 13 13 13 13 12 12 11 11 10 10 11 8 4 4 4 4 8 9 6 5 9 13 14 16 14 12 11 11 11 14 15
3 5 9 8 8 10 10 10 9 9 9 6 7 8 8 9 8 8 9 10 9 8 8 7 6 8 8 5 5 7 7 7 6 7 7 8 9 9 10 12 12 13 14 14 14 16 15 16 16 16 15 15 14 14 13 14 14 14 14 13 13 13 12 11 9 4 6 6 6 6 10 10 5 4 11 12 15 15 13 12 13 14 15 14 14
4 11 8 7 8 8 8 8 9 10 11 9 8 7 8 7 6 6 7 8 9 9 8 6 6 6 7 5 4 6 6 7 6 6 6 7 8 9 10 10 13 13 13 14 15 16 15 15 15 15 15 14 14 14 14 14 14 15 14 14 15 15 15 13 7 6 6 4 4 4 8 7 4 8 15 15 15 14 13 13 13 14 13 13 14
5 8 8 7 6 8 8 7 7 9 10 8 9 8 8 8 9 6 7 7 8 9 9 7 4 6 6 5 5 5 5 6 7 7 6 6 7 9 9 11 13 12 13 15 15 14 13 14 14 14 14 14 14 14 14 14 14 14 14 15 16 16 14 14 5 6 5 5 5 7 7 5 5 13 13 14 13 12 12 12 13 13 12 12 13
5 5 8 6 6 7 9 9 5 6 7 11 10 9 9 8 10 7 6 8 7 8 8 7 6 5 4 5 5 6 5 6 8 7 7 7 6 8 8 11 11 11 13 13 12 12 13 13 13 13 13 13 13 13 13 14 14 14 14 15 15 14 14 9 7 4 4 3 4 7 7 6 5 12 14 13 13 13 12 12 13 12 12 12 12
5 6 4 7 6 6 9 9 8 5 7 7 6 8 10 7 10 6 8 5 7 7 8 7 7 6 4 4 4 5 6 5 7 7 8 6 8 7 8 9 10 11 13 12 11 11 12 12 12 12 12 12 12 12 12 13 13 13 14 13 12 12 11 7 7 3 6 6 8 8 8 7 12 12 13 13 12 12 12 12 12 12 11 11 11
5 4 5 6 3 5 5 7 8 8 6 6 5 5 6 9 7 9 8 7 7 7 8 8 8 7 6 5 4 4 5 6 6 7 8 7 8 7 7 9 8 12 12 11 11 11 11 11 11 11 11 12 11 11 11 12 11 11 11 11 10 10 12 9 5 7 6 6 8 9 8 8 14 12 11 11 11 12 11 12 11 10 10 10 12
3 4 6 4 5 1 5 5 7 8 7 6 4 5 7 6 6 6 5 6 6 6 8 9 8 9 8 8 7 6 6 6 7 7 8 7 7 6 5 8 11 12 11 11 11 11 11 10 10 10 10 11 11 11 11 11 11 10 9 9 8 10 12 10 5 5 5 9 8 7 7 6 11 13 12 12 12 12 12 11 11 10 10 9 12
6 7 6 6 6 6 5 2 5 5 5 5 6 6 3 4 4 5 4 1 4 6 7 8 9 9 9 9 9 8 7 7 8 8 8 8 7 5 5 8 10 11 11 10 11 11 10 9 9 9 9 10 10 10 10 10 10 9 8 8 8 9 10 8 4 6 7 8 7 7 7 11 14 13 13 12 13 12 12 12 11 10 10 9 10
4 5 4 4 4 5 6 5 1 1 4 5 4 6 8 7 8 5 2 4 2 5 7 7 8 8 8 8 8 8 8 8 7 7 7 8 7 6 5 7 9 11 10 10 10 9 9 8 9 9 9 9 10 10 9 9 8 7 6 6 7 8 9 6 5 6 7 8 6 7 7 14 13 13 12 13 12 13 12 12 11 10 10 8 9
5 4 4 3 2 3 3 3 5 3 1 4 6 7 7 9 7 8 7 3 1 3 4 6 7 7 6 7 8 7 6 6 8 7 8 8 7 4 6 5 9 9 9 10 9 8 8 8 9 8 7 8 9 9 8 8 6 5 6 6 7 6 5 4 4 7 7 6 6 6 9 14 13 12 12 12 12 12 12 11 11 11 10 10 9
4 5 5 5 3 3 2 4 2 4 4 2 1 6 8 10 8 9 8 7 6 2 3 4 6 5 5 4 5 5 5 5 6 5 6 5 6 6 6 5 7 8 8 8 8 7 8 9 8 6 6 7 6 7 6 6 5 6 6 8 8 6 5 5 4 6 6 6 6 5 10 10 11 11 11 11 10 11 11 10 10 10 11 10 9
5 4 5 6 6 4 2 1 4 3 5 4 2 5 5 7 7 6 5 5 5 5 2 2 3 3 3 3 3 5 5 5 5 7 5 5 5 7 6 5 7 8 7 8 7 6 8 8 7 5 5 5 4 3 3 4 4 5 6 8 7 5 5 6 4 6 6 5 5 5 9 9 9 9 9 12 13 10 9 9 8 9 9 9 8
5 5 5 5 5 5 5 5 3 4 3 5 4 1 7 5 4 6 5 6 5 5 4 3 3 2 3 3 5 4 3 4 6 6 6 8 8 8 8 7 9 8 8 7 6 6 6 7 6 3 3 5 3 1 3 1 1 3 6 5 5 4 4 5 4 5 5 4 4 6 8 8 7 7 7 10 11 12 14 8 8 8 8 9 9
4 3 4 3 5 4 5 5 4 5 2 5 3 2 3 6 4 5 6 5 6 5 3 2 1 1 1 2 4 4 4 5 5 10 10 5 5 5 4 6 8 8 8 5 5 5 5 4 5 4 1 1 5 5 3 3 2 4 4 4 4 4 4 4 4 4 6 4 3 7 7 8 7 7 7 7 9 10 12 12 7 8 5 7 7
4 4 4 4 5 5 4 3 5 4 3 3 2 4 5 2 2 3 5 5 5 2 3 4 1 2 2 4 5 3 4 3 4 1 2 5 5 4 3 3 3 3 6 3 3 3 2 1 2 1 1 5 5 5 4 3 4 4 3 3 3 3 4 3 3 3 4 3 3 6 6 6 7 7 7 7 7 8 9 10 11 9 7 4 5
3 4 5 4 5 5 6 4 2 4 3 2 1 1 2 3 4 4 4 5 5 4 5 5 4 5 2 1 3 3 1 2 1 3 3 2 4 4 2 1 3 3 3 2 4 5 2 2 2 1 4 5 4 3 4 4 3 3 3 3 3 2 3 2 3 3 2 3 3 5 4 6 6 7 7 7 7 7 7 9 10 12 12 8 3
5 4 4 4 4 5 5 5 2 4 3 3 2 1 0 4 6 9 8 7 6 7 7 7 7 7 6 5 3 3 6 4 6 5 2 3 4 2 4 3 2 3 3 1 3 2 0 2 4 4 4 4 3 3 3 2 2 3 3 2 2 2 3 1 3 1 1 3 3 4 3 4 5 6 6 6 7 6 6 7 9 10 10 12 10
4 5 4 4 5 7 9 1 2 4 4 2 2 1 6 8 8 8 8 7 7 7 7 6 7 8 7 7 6 5 4 5 6 5 6 6 6 4 6 5 4 2 3 5 2 3 5 5 6 5 4 3 2 2 1 2 1 3 3 2 2 2 1 1 1 0 1 2 2 3 4 2 3 4 5 5 6 6 6 6 8 9 10 11 12
5 5 5 5 6 7 4 8 2 3 4 2 4 7 6 7 7 7 7 6 6 6 7 6 7 6 7 8 7 7 6 6 7 6 6 7 7 8 7 8 8 7 6 6 6 6 6 5 5 5 6 4 2 3 2 2 3 3 3 2 3 2 1 1 1 1 1 1 3 1 2 2 3 4 5 5 5 5 6 6 6 7 8 9 10
6 6 5 5 6 5 8 6 5 6 7 9 5 6 6 7 7 7 6 7 7 7 7 7 6 6 7 7 8 6 6 6 6 6 8 7 7 6 7 7 7 6 6 6 5 5 5 5 5 5 5 4 4 4 4 1 3 4 3 3 3 4 2 1 2 1 3 3 2 1 1 2 2 5 7 8 7 8 8 8 7 6 6 6 8
6 6 5 5 5 6 6 6 7 7 7 9 7 7 7 7 7 6 7 7 7 7 7 6 6 7 7 7 7 7 6 6 6 6 7 6 6 6 6 6 6 5 5 5 5 5 4 4 4 4 4 4 3 3 3 4 1 2 2 1 1 3 3 3 3 2 3 4 5 1 0 0 1 2 4 7 10 11 11 12 12 11 9 8 7
6 6 5 5 5 7 6 7 7 6 8 8 8 8 8 8 7 7 7 7 7 7 6 6 8 7 7 7 7 7 6 6 6 7 7 6 7 7 6 6 5 5 5 5 6 5 4 4 5 4 4 5 5 5 5 6 5 3 1 1 2 2 3 4 4 2 3 3 3 4 2 1 3 1 2 5 7 9 11 13 14 14 14 13 11
3 4 5 5 6 6 7 8 6 7 8 8 8 8 7 8 8 8 7 7 8 7 8 7 7 8 8 9 9 9 7 7 8 8 7 6 7 7 6 6 4 4 5 5 4 4 5 5 5 5 6 6 6 6 6 6 6 6 6 1 1 2 3 3 4 4 4 4 4 5 7 5 4 4 4 5 5 8 10 12 14 14 15 15 15
4 4 6 7 6 4 5 5 8 10 9 8 8 8 7 8 7 7 8 8 8 8 8 7 8 8 8 9 9 10 8 7 7 7 7 7 8 7 7 7 6 7 6 4 4 6 6 7 5 4 5 6 6 5 6 6 6 6 6 5 3 2 3 3 2 2 2 4 5 5 7 7 7 6 6 9 5 6 9 13 14 14 14 15 15
3 5 6 5 7 6 4 6 7 9 9 9 9 9 8 8 7 7 8 8 8 8 8 7 8 7 7 7 8 8 8 8 8 7 8 7 7 7 8 7 6 7 7 7 6 7 6 6 6 5 6 5 4 4 4 5 5 6 6 6 7 4 3 3 1 3 5 5 6 6 6 7 7 6 6 6 5 6 8 11 14 15 14 15 16
5 4 4 5 7 7 7 8 8 10 9 8 8 9 9 8 7 8 8 8 8 8 7 7 7 7 7 7 7 7 8 9 8 7 8 7 7 7 6 6 7 7 7 8 8 7 6 6 7 6 5 6 6 7 6 5 4 4 5 5 5 5 5 5 6 6 5 7 7 6 6 6 7 7 6 6 6 6 11 10 13 15 13 13 15
4 4 4 4 7 6 7 8 9 9 10 11 10 10 9 9 9 9 9 8 8 8 7 7 7 7 7 7 7 7 7 7 8 7 7 7 6 6 6 6 4 6 7 7 7 6 5 5 6 7 7 6 7 6 6 7 6 4 4 4 4 4 4 5 6 6 6 5 4 4 5 5 6 6 6 6 6 6 8 12 11 13 11 11 16
3 4 4 5 7 6 7 8 8 8 8 8 8 8 8 9 9 8 8 9 9 8 7 7 8 7 7 8 8 8 8 8 8 6 8 8 8 8 8 9 8 8 8 8 8 7 5 5 4 6 9 8 7 8 8 7 6 5 4 3 4 2 5 7 7 6 4 4 5 4 5 6 6 5 6 5 5 6 5 8 10 12 14 14 19
3 4 4 4 5 5 6 8 9 9 8 8 9 9 9 10 9 9 9 10 9 8 7 8 7 7 8 8 9 8 9 10 9 9 8 8 8 8 9 8 8 8 8 8 8 8 9 7 9 8 7 7 7 7 6 6 6 5 4 4 1 4 7 6 7 6 7 5 7 6 7 7 7 7 8 7 7 7 7 7 7 7 8 13 16
4 4 2 3 5 5 6 6 6 6 6 6 5 7 7 7 8 7 9 9 8 8 8 8 7 8 8 8 9 9 9 9 9 9 9 8 8 8 8 8 8 8 9 10 8 8 9 8 6 7 7 8 9 9 10 8 6 4 5 6 1 8 8 8 8 7 6 6 6 7 7 7 8 9 11 9 8 9 8 7 7 8 8 9 12
5 3 2 3 3 4 4 5 4 4 5 6 6 6 7 7 8 8 9 6 7 8 8 8 8 8 9 9 9 9 9 9 9 8 9 9 8 8 8 8 8 8 9 9 8 8 8 8 6 5 8 9 10 11 11 6 7 8 7 7 7 6 8 10 11 8 8 8 8 7 7 7 8 8 8 7 7 7 7 7 7 8 8 8 9
4 3 2 3 4 4 5 5 5 7 6 6 6 6 5 5 7 6 8 6 6 7 8 8 8 8 9 9 9 9 10 10 9 8 8 8 8 8 8 8 8 8 8 8 9 10 11 10 8 7 5 7 7 9 10 7 7 5 4 6 5 4 4 9 11 8 9 8 8 8 8 6 8 8 8 8 7 6 7 7 7 8 8 8 8
3 3 2 3 4 5 5 5 6 6 6 6 6 7 6 6 7 7 8 9 7 7 7 7 7 9 9 9 9 9 9 9 9 8 8 8 8 8 8 7 8 7 9 10 10 11 9 10 9 7 6 6 5 7 10 10 6 6 2 3 3 2 2 8 8 6 8 6 8 7 8 6 8 7 9 8 7 6 7 7 6 7 9 9 8
3 3 2 3 4 5 5 6 6 6 7 7 8 8 9 9 9 9 8 9 8 7 8 8 8 10 10 9 9 8 9 9 9 9 8 9 8 8 7 8 8 7 8 9 10 10 9 9 9 9 6 7 6 8 8 10 8 7 6 2 3 2 4 5 8 7 4 5 8 8 6 5 7 9 7 7 6 6 8 6 6 7 9 9 8
3 3 2 3 4 5 5 6 6 6 6 7 8 9 11 10 10 10 9 9 7 7 7 8 8 7 8 9 8 8 8 8 8 9 8 8 8 8 8 8 8 8 7 8 8 8 7 7 8 8 9 5 7 5 8 8 11 8 3 4 5 5 1 5 5 5 10 8 8 9 5 7 8 8 7 7 4 7 7 6 6 7 8 9 9
4 2 3 4 5 6 6 7 6 6 8 7 8 8 8 9 8 7 7 7 8 7 7 7 6 7 8 5 8 8 8 8 8 8 8 8 8 8 7 8 8 8 8 7 7 8 9 9 8 7 9 9 4 7 7 8 7 9 8 5 3 1 3 6 4 6 6 3 6 7 6 8 9 9 8 6 6 7 7 6 5 6 8 8 9
4 3 3 5 5 6 6 6 7 6 6 7 8 7 6 5 5 6 7 7 10 6 5 5 6 6 6 8 7 7 7 8 8 7 8 8 7 7 7 7 7 7 7 8 8 8 7 7 7 7 7 7 7 7 7 6 6 6 7 6 7 4 3 3 3 4 7 2 2 6 5 8 8 8 8 5 8 8 6 6 8 7 6 7 8
5 4 4 4 6 6 6 6 5 5 4 4 4 6 8 8 9 8 7 7 8 9 6 6 6 6 8 8 7 7 7 7 7 7 7 7 7 7 7 6 7 6 7 7 7 6 7 7 7 7 6 7 7 7 5 6 7 5 6 6 6 6 6 5 5 4 3 8 10 3 1 5 7 6 5 8 8 7 9 9 9 8 7 7 7
5 4 4 5 5 6 7 6 6 5 4 5 6 7 7 9 8 9 9 6 8 8 6 6 6 6 8 7 7 7 7 7 6 7 7 6 6 6 6 7 7 6 6 6 6 6 6 6 8 8 7 7 6 5 5 6 5 5 4 5 4 5 5 4 4 5 3 4 6 6 12 6 3 4 7 6 6 8 9 9 8 8 7 6 7
4 4 4 5 5 6 7 7 6 5 5 6 8 8 8 8 9 9 11 10 7 7 6 7 6 5 7 7 6 6 6 6 6 5 6 6 6 6 6 6 6 6 7 6 6 6 6 6 6 6 6 7 6 6 6 6 5 5 5 4 4 5 4 4 3 5 3 2 5 10 8 13 14 7 6 7 8 9 8 8 8 7 7 7 6
5 4 5 5 5 6 7 8 6 6 6 6 7 8 8 8 9 9 10 11 9 9 8 7 6 6 7 6 6 6 6 6 6 6 5 5 5 5 6 6 6 6 7 7 6 6 6 6 6 5 6 7 6 6 6 6 6 6 6 6 5 5 3 3 4 5 3 3 6 6 7 6 8 13 6 8 10 8 7 7 8 8 7 7 7
Wind_Direction
155 122 132 142 150 153 151 146 143 137 134 130 125 121 117 113 109 107 103 103 102 100 96 94 96 92 92 92 84 77 75 73 76 86 85 79 74 80 80 76 74 75 75 71 67 63 57 52 48 44 41 38 36 35 35 35 36 39 41 44 44 41 41 41 35 33 25 33 57 50 51 51 54 54 54 53 54 52 51 54 57 51 47 53 56
132 119 129 138 147 153 150 148 144 140 135 132 129 124 120 117 115 111 107 103 101 100 103 100 95 94 90 87 82 76 72 69 70 78 86 81 80 80 78 80 82 81 78 75 69 63 58 54 50 44 38 35 32 32 32 32 34 35 37 39 41 42 38 36 33 27 27 26 44 59 48 52 52 53 53 52 51 50 50 54 56 54 50 53 53
108 120 120 127 140 149 148 146 145 141 137 134 130 125 120 118 118 115 110 107 106 104 100 99 102 99 98 91 85 76 73 72 70 72 84 86 85 84 85 84 79 74 69 66 68 66 61 56 52 46 39 34 30 29 27 29 31 33 33 32 34 33 32 27 18 14 20 20 22 35 53 57 55 58 58 56 53 49 47 50 53 52 51 51 51
118 115 112 111 124 141 149 147 145 140 137 131 129 126 123 121 117 116 114 112 106 102 100 100 102 99 94 88 84 78 73 70 69 72 78 88 85 81 75 74 73 75 70 67 68 66 61 55 51 46 40 34 31 29 27 27 28 29 30 31 28 26 22 19 5 353 359 10 3 24 5 60 52 59 65 61 56 52 48 47 47 50 51 47 48
125 120 115 117 121 133 147 141 144 145 138 133 132 129 126 123 122 118 119 116 113 109 106 107 104 99 96 92 85 83 76 69 66 69 75 83 86 82 78 73 74 71 66 64 67 62 56 50 46 43 38 33 31 29 29 29 29 28 28 28 26 22 20 14 1 348 346 349 356 24 43 63 48 47 58 65 61 57 55 51 47 45 48 46 42
126 120 128 129 134 137 136 140 144 145 141 137 134 132 129 127 124 124 122 121 118 118 113 106 105 103 101 96 89 85 79 73 70 68 70 77 86 84 80 81 79 74 72 69 67 61 54 48 43 42 39 34 32 32 33 31 32 32 29 29 27 24 18 12 351 338 333 332 328 319 72 61 60 59 56 56 59 63 61 57 51 47 45 48 44
130 124 134 135 133 137 140 147 150 147 142 141 139 135 134 132 130 128 126 123 122 118 117 112 110 109 105 105 100 86 83 82 79 76 74 76 81 87 80 79 78 78 79 74 68 59 54 47 43 40 39 36 34 35 35 37 37 35 32 28 25 20 15 6 342 330 330 329 352 82 59 69 59 48 54 57 61 62 63 59 55 50 48 46 45
95 128 139 134 119 133 143 146 153 153 147 144 142 139 140 137 136 133 131 129 128 124 120 118 114 120 114 110 106 98 90 91 88 89 84 80 84 87 88 82 79 82 78 74 65 57 52 46 41 38 36 36 36 36 38 39 40 38 35 28 21 19 9 356 338 337 324 324 28 39 55 61 49 45 52 58 56 55 52 50 50 48 46 47 46
147 132 151 130 131 138 147 143 157 165 154 147 147 147 144 143 139 139 135 132 131 130 128 120 123 120 117 116 108 102 93 91 92 91 96 94 93 94 86 75 67 73 70 67 61 59 55 47 40 36 34 35 35 37 38 38 39 39 36 30 23 19 14 357 351 335 325 10 55 25 53 72 64 47 51 58 58 56 53 49 43 44 45 44 41
161 145 113 110 132 140 142 148 157 151 161 152 150 149 149 148 144 139 135 135 133 130 130 134 131 126 116 118 110 105 94 84 92 96 98 99 97 95 85 76 63 62 68 63 59 60 53 47 40 35 33 35 34 35 38 38 39 37 34 28 27 25 15 2 337 326 304 34 66 30 59 62 53 54 49 56 57 56 50 46 49 45 44 44 40
164 84 90 104 123 129 143 145 142 157 146 167 155 154 152 147 145 133 139 138 134 130 129 132 134 125 127 132 119 108 102 93 85 93 95 100 102 94 84 76 72 65 61 61 61 63 54 47 40 38 36 36 36 35 36 37 38 35 31 25 18 15 6 348 334 307 16 33 23 35 86 77 71 67 55 54 59 56 49 45 46 45 41 39 35
93 85 96 96 95 98 128 132 135 162 161 168 161 157 140 146 128 141 145 141 138 134 134 136 138 130 127 128 113 108 108 100 89 89 92 97 100 91 89 83 77 74 71 65 63 62 54 48 45 42 40 39 37 38 37 37 37 34 30 22 16 12 0 345 349 23 24 18 18 46 66 62 57 55 49 44 46 48 47 47 46 42 39 39 33
37 98 114 115 99 86 78 110 140 160 153 156 161 161 156 153 146 179 161 150 144 141 139 139 125 124 129 126 104 110 105 105 93 70 76 86 94 96 86 85 81 79 75 72 67 63 58 54 50 49 47 44 41 39 40 40 37 33 26 20 18 13 3 347 12 15 20 30 14 30 54 48 41 45 44 43 42 39 41 44 46 43 40 41 35
42 17 99 115 116 98 85 69 105 153 153 164 164 160 157 170 158 163 161 166 150 137 137 132 126 107 105 118 111 110 118 115 106 111 78 94 92 71 80 87 86 83 84 82 77 73 66 60 55 53 52 52 49 45 44 43 40 35 27 20 16 9 5 354 356 28 12 30 4 51 50 30 37 47 40 36 38 37 35 39 43 36 36 41 39
40 19 30 119 130 118 99 87 70 99 155 149 162 156 154 175 151 189 159 183 150 135 138 130 124 125 125 112 104 92 118 129 122 110 105 104 107 96 95 91 87 88 90 91 87 80 75 67 61 57 53 53 56 57 54 51 47 41 31 20 12 3 6 358 337 7 19 14 28 41 37 26 22 37 35 32 33 35 33 33 25 26 36 40 40
42 16 6 54 73 133 123 108 96 81 73 109 130 161 155 170 172 169 164 176 155 143 137 141 136 129 121 127 110 92 125 135 129 122 115 119 121 117 105 92 98 99 102 97 94 89 80 74 70 64 59 56 56 60 61 57 53 47 38 23 9 1 1 5 344 38 20 19 43 34 23 11 10 27 25 25 31 35 28 24 24 26 38 36 40
57 64 38 33 21 27 137 147 132 113 90 88 130 144 149 173 176 168 152 189 151 149 143 142 144 140 133 124 120 115 122 130 135 134 129 125 121 116 110 109 104 108 109 102 98 92 88 85 83 76 69 64 64 62 63 60 53 44 36 24 12 3 356 3 354 28 18 36 47 33 19 7 9 21 16 18 25 24 22 22 25 27 30 33 41
42 48 41 24 21 11 13 59 144 151 153 136 116 136 137 146 148 149 140 168 155 146 137 138 140 138 138 137 133 132 134 139 144 141 133 133 123 115 129 118 109 110 109 106 101 96 91 90 86 82 76 74 74 74 69 67 59 45 33 21 15 4 356 358 8 15 28 56 44 32 22 3 16 17 19 21 22 20 20 21 22 23 22 27 42
84 79 51 28 14 21 11 352 7 184 183 166 172 157 171 162 166 135 137 148 164 155 140 136 136 139 138 139 134 129 134 137 139 136 129 128 127 106 117 118 121 116 113 108 103 101 98 90 81 76 74 70 72 77 75 70 67 57 34 25 15 6 14 25 16 35 40 53 42 32 12 12 18 16 20 23 24 21 20 19 19 24 14 20 39
72 68 92 100 68 12 353 11 343 328 296 187 175 166 159 153 151 150 168 179 173 88 124 136 125 122 126 137 133 124 129 137 135 136 139 135 137 124 118 106 121 123 117 114 110 107 101 90 79 73 73 71 68 70 70 64 56 46 36 22 14 30 36 22 36 48 52 56 50 31 13 18 17 19 19 25 25 22 20 20 18 17 18 18 36
81 71 45 29 63 81 4 341 337 345 329 338 207 146 159 152 150 158 166 177 177 210 123 104 109 104 120 129 142 144 152 139 146 140 139 134 122 138 133 126 128 129 124 119 121 118 103 94 87 80 82 88 79 73 68 67 52 32 26 22 33 41 29 24 44 65 62 57 44 24 19 23 19 23 22 22 25 27 19 16 18 18 21 14 16
38 45 49 37 10 6 15 334 335 344 338 322 315 125 143 159 154 153 157 158 169 174 175 166 174 134 136 158 196 205 187 164 161 143 154 129 134 151 152 142 136 131 131 130 132 122 112 108 106 116 108 125 124 93 65 53 59 42 17 36 45 24 19 29 44 73 76 68 52 24 24 22 25 22 21 16 22 21 21 13 6 20 20 16 3
40 17 25 41 15 356 4 350 349 316 333 320 311 68 150 174 186 163 158 160 163 178 178 200 186 166 176 200 215 223 207 124 143 158 150 150 150 159 160 146 138 140 135 136 137 125 122 122 132 132 159 132 187 170 131 165 359 40 39 49 42 22 31 33 32 65 85 84 61 39 32 26 16 10 10 10 15 24 16 18 1 11 19 7 8
28 30 13 26 27 8 356 331 4 322 345 307 320 314 179 174 184 149 147 172 166 171 206 148 18 51 329 323 339 346 46 88 91 123 131 140 142 139 127 134 137 142 138 135 133 108 111 144 141 181 210 170 60 42 58 54 54 63 44 47 50 24 48 50 43 45 94 79 67 50 36 31 22 4 355 3 10 9 14 16 14 354 25 1 9
16 34 4 27 24 358 339 338 338 317 297 297 328 345 347 42 104 106 117 139 91 17 55 34 82 127 331 327 326 37 43 28 107 42 149 125 141 141 133 148 147 147 155 143 146 126 140 220 187 151 227 75 63 45 37 36 35 57 45 38 56 42 52 45 53 27 92 90 78 60 39 30 27 17 358 353 2 1 6 6 13 359 343 335 338
34 33 5 12 17 348 334 294 279 281 283 238 260 265 37 8 54 53 84 76 69 101 68 51 38 31 107 72 355 31 191 184 175 114 325 74 141 153 113 160 156 158 204 159 131 137 227 270 302 135 85 75 82 81 50 55 37 50 44 26 6 38 76 60 66 19 67 115 88 79 44 30 27 24 12 3 357 353 358 356 355 9 355 341 280
23 28 2 20 357 331 285 264 192 271 250 254 227 1 67 48 66 55 61 53 68 59 56 47 46 49 34 26 40 3 18 32 34 37 37 14 64 19 167 174 125 134 186 103 77 116 83 29 45 55 76 88 94 88 87 58 53 72 50 29 343 30 48 26 80 42 333 114 115 104 86 38 22 23 21 6 3 358 352 347 345 358 2 6 3
29 20 12 1 357 317 314 309 160 237 227 227 158 192 58 64 67 68 62 69 69 63 57 48 50 44 32 26 5 46 81 46 56 44 49 28 13 22 35 53 59 61 37 45 48 19 47 33 36 31 23 78 80 112 138 123 86 80 68 4 340 23 23 348 90 14 326 106 134 127 106 67 21 7 12 11 4 5 2 351 348 346 350 1 355
29 18 3 1 332 324 323 356 332 253 224 147 58 69 78 73 68 70 68 72 72 74 66 55 54 46 42 34 19 38 43 61 55 53 64 57 44 35 41 40 38 32 43 43 37 33 34 36 29 27 26 4 53 31 16 38 81 56 58 13 348 346 347 358 15 345 333 15 133 177 101 63 349 348 355 357 2 1 359 4 357 353 353 348 351
18 14 360 350 326 347 4 355 9 25 61 75 79 67 71 79 69 69 76 74 70 66 67 61 51 55 49 38 32 32 50 60 66 56 59 49 47 46 51 49 45 32 43 42 32 48 36 22 26 31 33 16 34 20 25 10 85 89 61 17 349 336 342 3 351 4 348 357 58 136 66 99 347 337 342 344 351 356 358 357 358 3 353 347 347
13 8 357 338 347 3 9 7 18 26 55 72 70 74 67 71 63 62 61 63 67 70 66 60 56 57 52 48 45 35 46 58 68 68 69 66 61 61 57 59 55 42 50 57 35 50 52 37 30 25 15 15 1 49 7 340 62 97 97 79 342 331 339 355 5 12 10 17 5 13 186 351 230 309 344 346 353 353 357 360 359 356 355 353 342
10 360 351 330 8 10 12 16 28 36 53 61 65 70 65 64 63 62 58 52 55 60 60 56 50 41 39 43 42 39 35 42 50 64 70 65 58 53 52 55 56 51 55 57 54 46 54 40 27 22 354 7 15 17 1 4 3 13 30 85 13 4 349 10 347 1 30 19 350 350 37 229 264 272 340 342 3 7 10 8 1 357 355 353 349
1 348 348 3 16 14 20 17 28 43 53 57 60 61 63 59 58 52 51 51 57 56 51 46 51 42 38 34 35 30 32 48 43 44 47 56 57 50 42 38 40 59 75 79 78 68 58 44 30 24 24 22 23 5 358 11 4 345 351 354 32 354 17 22 352 25 24 359 6 18 18 7 21 29 345 325 2 19 21 13 6 358 354 351 348
359 353 356 24 27 24 25 25 42 48 50 56 57 65 59 65 59 60 57 56 57 59 55 54 52 47 40 37 39 35 30 39 49 53 52 48 51 44 38 33 18 22 29 30 64 52 41 34 15 48 37 33 26 10 1 358 349 348 342 337 355 5 36 349 349 36 22 24 15 31 19 23 27 21 8 355 20 21 16 13 5 3 359 354 351
18 4 2 19 50 34 30 51 49 63 58 61 61 67 60 66 64 63 62 62 65 66 59 56 57 54 51 45 47 48 42 44 51 55 52 51 55 52 39 28 21 27 29 22 43 50 45 35 21 38 51 30 25 14 13 3 360 347 337 341 341 348 15 336 8 23 38 23 29 28 27 36 28 9 3 13 32 18 7 2 0 5 5 5 1
25 3 1 33 52 48 56 74 57 71 65 60 63 69 71 70 69 66 71 63 66 65 62 57 57 55 52 52 45 52 55 53 56 61 67 61 62 62 57 48 43 43 40 37 35 39 47 41 28 27 29 26 18 7 357 349 345 333 325 325 326 343 352 356 28 36 30 38 33 27 29 39 30 20 20 18 24 14 4 355 359 359 358 360 359
24 8 25 54 56 45 53 69 72 68 79 77 72 71 75 74 72 70 70 66 61 59 54 52 50 48 40 46 38 40 46 56 62 61 65 60 56 55 45 47 48 54 53 45 42 35 42 46 38 32 32 20 17 8 359 355 337 323 314 319 317 329 342 26 42 37 37 34 35 32 33 45 39 29 13 17 24 6 359 1 1 4 4 352 351
27 37 44 55 76 64 62 68 74 70 74 83 84 86 80 78 76 72 67 65 60 57 54 51 50 45 41 41 36 35 34 41 44 48 58 53 49 46 40 36 37 39 40 35 28 18 25 44 48 48 44 27 18 10 352 341 328 313 302 299 294 335 34 46 40 36 39 26 21 37 45 53 45 26 13 14 20 5 1 359 4 7 360 354 352
50 53 60 82 95 102 93 86 93 97 90 87 90 87 84 79 75 72 68 65 60 57 52 54 49 47 47 45 43 41 36 39 43 45 54 51 52 51 51 44 45 47 48 43 31 25 23 21 48 40 37 37 21 7 348 333 332 319 310 276 273 58 61 53 39 24 7 24 45 36 40 38 33 16 9 5 9 9 2 360 9 6 354 349 351
88 64 48 95 104 99 97 95 84 80 95 95 81 84 83 80 82 74 67 62 63 60 52 53 48 51 45 46 45 45 39 40 41 46 54 52 51 47 53 48 47 51 50 45 35 31 26 20 39 56 38 24 25 13 4 352 346 356 345 334 97 91 73 44 24 13 29 39 37 44 45 36 37 25 16 9 10 9 0 2 9 1 351 345 343
93 93 64 70 79 89 82 77 92 109 100 95 87 83 88 90 79 74 79 68 68 67 61 51 51 49 46 47 46 45 43 43 40 45 49 51 51 48 49 45 45 49 50 48 42 38 34 36 20 53 55 37 25 14 5 354 10 3 355 5 60 78 77 50 26 21 28 23 33 36 31 41 38 34 20 3 0 2 356 0 8 1 352 346 339
101 108 60 72 78 69 72 73 61 59 59 59 67 66 59 71 96 80 85 72 66 65 65 53 54 52 49 48 47 45 46 46 41 43 49 50 50 47 46 45 42 47 53 50 44 39 34 32 26 20 34 60 45 22 9 6 25 14 341 338 46 46 70 49 35 9 25 34 33 27 11 36 38 28 14 1 349 2 356 354 6 3 350 342 337
108 103 102 93 79 71 66 66 58 60 56 64 72 82 73 66 85 92 92 91 72 77 79 73 63 61 53 49 47 47 48 49 46 46 49 46 48 49 42 40 43 42 47 43 39 40 33 30 29 34 10 27 54 28 28 34 19 334 302 54 6 13 348 13 8 14 23 30 28 22 15 27 28 25 10 350 345 359 358 349 6 2 351 336 330
119 114 96 91 84 81 83 78 70 69 74 72 88 89 93 93 86 96 88 88 98 81 75 67 62 59 54 48 46 47 46 49 45 47 50 47 47 49 45 42 40 40 50 52 42 39 30 29 26 29 31 38 23 16 27 27 35 11 21 17 310 51 358 351 350 317 22 26 20 14 8 16 21 20 357 342 342 355 357 343 359 359 347 330 324
114 112 113 107 109 101 94 93 94 95 93 98 99 105 104 99 100 97 98 95 74 74 74 63 60 62 65 50 45 45 48 50 46 47 50 51 48 46 49 46 46 39 42 52 50 41 35 30 29 32 33 43 31 21 10 24 28 31 57 23 5 26 24 294 328 290 6 351 8 357 353 21 22 2 343 328 341 356 343 331 345 351 337 326 318
120 117 114 115 113 108 105 106 103 101 111 118 120 117 112 118 120 115 103 95 84 67 74 86 73 64 67 65 55 48 48 50 46 47 48 49 48 47 49 51 50 45 42 48 46 41 32 30 21 34 30 23 54 37 27 6 30 24 30 70 109 118 321 304 25 315 355 298 22 348 342 16 10 346 327 325 345 338 326 320 337 335 328 320 314
130 146 112 110 108 110 112 112 118 123 129 127 133 131 126 117 106 99 100 110 112 90 92 85 90 89 82 68 64 53 49 53 47 48 49 48 51 48 50 53 54 54 48 51 47 41 35 32 23 32 35 31 33 51 37 10 359 20 15 16 23 15 13 14 351 317 333 332 32 337 345 1 349 334 324 338 342 326 323 328 324 317 313 309 308
141 141 129 117 114 116 110 109 105 101 92 104 96 95 97 100 99 101 103 106 103 114 105 99 95 96 88 80 73 62 53 51 54 49 48 49 50 50 50 51 54 50 54 55 54 45 43 35 33 29 31 41 40 48 34 25 55 352 359 13 10 2 4 30 45 48 299 310 321 310 311 345 338 321 331 339 325 328 327 320 312 309 308 307 301
139 139 133 123 116 113 113 107 102 95 87 90 100 97 102 106 110 118 109 99 107 110 112 104 102 99 95 91 83 75 63 53 54 56 49 50 51 53 50 52 52 48 49 52 51 48 49 46 37 31 29 26 37 40 47 21 36 26 10 3 10 13 351 9 40 24 352 314 292 336 325 323 305 294 337 320 323 327 315 306 301 296 296 296 303
130 128 124 122 120 118 115 111 104 102 104 102 105 108 110 115 121 124 122 122 124 115 113 113 106 102 94 89 86 82 75 63 53 51 55 51 53 52 53 51 52 49 48 44 42 44 42 41 43 44 34 35 19 38 43 21 21 20 32 25 22 3 358 10 14 5 320 288 309 320 324 328 331 331 331 323 326 315 306 303 304 301 297 293 297
135 137 132 130 129 125 123 115 118 112 113 115 113 115 114 123 128 130 130 132 131 128 123 114 109 100 100 94 91 91 84 74 57 45 50 48 49 54 58 54 49 50 49 43 36 36 42 45 39 38 39 42 24 34 32 24 25 22 16 24 19 24 11 25 347 350 351 321 321 298 311 308 309 313 326 327 316 303 304 316 311 309 295 296 296